Eau Claire, WI

8:53 PM CDT on March 26, 2017 (GMT -0500)
Chippewa Valley Regional

Weather History for KEAU - March, 2014

Change the Weather History Date:

Thursday, March 20, 2014

  Actual Average Record
Temperature  
Mean Temperature 30 °F 33 °F  
Max Temperature 40 °F 43 °F 69 °F (2012)
Min Temperature 20 °F 23 °F -19 °F (1981)
Degree Days  
Heating Degree Days 35 32  
Month to date heating degree days 876 723  
Since 1 July heating degree days 7768 6743  
Cooling Degree Days 0 0  
Month to date cooling degree days 0 0  
Year to date cooling degree days 0 0  
Moisture  
Dew Point 23 °F    
Average Humidity 73    
Maximum Humidity 92    
Minimum Humidity 54    
Precipitation  
Precipitation T in 0.06 in 0.92 in (1969)
Month to date precipitation 0.17 0.96  
Year to date precipitation 3.37 2.66  
Snow  
Snow T in 0.20 in 5.00 in (1969)
Month to date snowfall 2.0 6.1  
Since 1 July snowfall 63.7 42.4  
Snow Depth 11.00 in    
Sea Level Pressure  
Sea Level Pressure 30.00 in    
Wind  
Wind Speed 4 mph (WSW)    
Max Wind Speed 8 mph    
Max Gust Speed -    
Visibility 10 miles    
Events      
T = Trace of Precipitation, MM = Missing Value Source: NWS Daily Summary

Daily Weather History Graph

Daily Weather History Graph

Search for Another Location

Airport or City:

Trip Planner

Search our weather history database for the weather conditions in past years. The results will help you decide how hot, cold, wet, or windy it might be!

Date:

Astronomy

Mar. 20, 2014 Rise Set
Actual Time 7:09 AM CDT 7:18 PM CDT
Civil Twilight 6:39 AM CDT 7:47 PM CDT
Nautical Twilight 6:05 AM CDT 8:22 PM CDT
Astronomical Twilight 5:30 AM CDT 8:57 PM CDT
Moon 11:49 PM CDT (3/20) 9:05 AM CDT (3/20)
Length of Visible Light 13h 07m
Length of Day
12h 09m
Waning Gibbous, 84% of the Moon is Illuminated
Mar 20
Waning Gibbous
Mar 23
Last Quarter
Mar 30
New
Apr 7
First Quarter
Apr 15
Full

Hourly Weather History & Observations

Time (CDT) Temp. Windchill Dew Point Humidity Pressure Visibility Wind Dir Wind Speed Gust Speed Precip Events Conditions
12:56 AM 33.1 °F 26.1 °F 25.0 °F 72% 29.96 in 10.0 mi West 8.1 mph - N/A   Overcast
1:56 AM 32.0 °F 25.6 °F 23.0 °F 69% 29.97 in 10.0 mi WNW 6.9 mph - N/A   Overcast
2:56 AM 30.9 °F 24.3 °F 23.0 °F 72% 29.98 in 10.0 mi WNW 6.9 mph - N/A   Overcast
3:56 AM 28.9 °F 25.2 °F 21.0 °F 72% 29.99 in 10.0 mi West 3.5 mph - N/A   Mostly Cloudy
4:56 AM 27.0 °F 21.6 °F 19.9 °F 75% 30.00 in 10.0 mi West 4.6 mph - N/A   Mostly Cloudy
5:56 AM 23.0 °F 18.4 °F 19.0 °F 85% 30.02 in 10.0 mi WSW 3.5 mph - N/A   Clear
6:56 AM 21.9 °F 15.7 °F 19.0 °F 89% 30.03 in 10.0 mi SW 4.6 mph - N/A   Partly Cloudy
7:56 AM 25.0 °F 17.1 °F 21.0 °F 85% 30.04 in 8.0 mi WSW 6.9 mph - N/A   Overcast
8:37 AM 26.1 °F - 21.0 °F 81% 30.00 in 8.0 mi Calm Calm - N/A   Overcast
8:56 AM 27.0 °F 23.0 °F 21.9 °F 81% 30.04 in 7.0 mi WSW 3.5 mph - N/A   Overcast
9:56 AM 28.0 °F - 23.0 °F 81% 30.05 in 8.0 mi Calm Calm - 0.00 in   Overcast
10:56 AM 30.0 °F 26.5 °F 24.1 °F 79% 30.05 in 10.0 mi SW 3.5 mph - N/A   Overcast
11:56 AM 32.0 °F 27.5 °F 23.0 °F 69% 30.05 in 10.0 mi SSW 4.6 mph - N/A   Overcast
12:56 PM 34.0 °F - 26.1 °F 73% 30.03 in 10.0 mi Calm Calm - N/A   Overcast
1:12 PM 34.0 °F - 27.0 °F 75% 30.00 in 9.0 mi Calm Calm - N/A   Mostly Cloudy
2:56 PM 37.0 °F 34.5 °F 27.0 °F 67% 30.00 in 10.0 mi WSW 3.5 mph - N/A   Clear
3:56 PM 37.9 °F 33.5 °F 27.0 °F 65% 29.99 in 10.0 mi WSW 5.8 mph - N/A   Partly Cloudy
4:56 PM 39.0 °F 34.8 °F 26.1 °F 60% 29.98 in 10.0 mi SW 5.8 mph - N/A   Mostly Cloudy
5:56 PM 39.0 °F 34.8 °F 25.0 °F 57% 29.99 in 10.0 mi WSW 5.8 mph - N/A   Scattered Clouds
6:56 PM 39.0 °F 36.8 °F 24.1 °F 55% 29.98 in 10.0 mi West 3.5 mph - N/A   Clear
7:56 PM 37.0 °F - 24.1 °F 59% 29.98 in 10.0 mi Calm Calm - N/A   Clear
8:56 PM 32.0 °F 28.7 °F 24.1 °F 73% 30.00 in 10.0 mi South 3.5 mph - N/A   Clear
9:56 PM 30.0 °F - 24.1 °F 79% 30.00 in 10.0 mi Calm Calm - N/A   Overcast
10:56 PM 30.9 °F - 24.1 °F 76% 30.00 in 10.0 mi Calm Calm - N/A   Partly Cloudy
11:56 PM 26.1 °F - 21.9 °F 84% 29.99 in 10.0 mi Calm Calm - N/A   Clear